Orbital Elements at Epoch 2459000.5 (2020-May-31.0) TDB
Reference: JPL 15 (heliocentric ecliptic J2000)
Element | Value | Uncertainty (1-sigma) | Units |
e | .06741019449881183 | 4.1489e-08 | |
a | 2.288945060071596 | 1.3378e-08 | au |
q | 2.134646828375075 | 9.62e-08 | au |
i | 7.376755472525415 | 5.2605e-06 | deg |
node | 85.26109410307531 | 3.7243e-05 | deg |
peri | 67.01637291468435 | 5.528e-05 | deg |
M | 23.78269962206262 | 3.9632e-05 | deg |
tp | 2458916.937749108278 (2020-Mar-08.43774911) | 0.00013923 | TDB |
period | 1264.886274437622 3.46 | 1.1089e-05 3.036e-08 | d yr |
n | .2846105671911562 | 2.4951e-09 | deg/d |
Q | 2.443243291768117 | 1.428e-08 | au |
|
| | Orbit Determination Parameters
Additional Information
|